Skip Page Navigation
NASA JPL Caltech
NASA Logo - Jet Propulsion Laboratory + View the NASA Portal
+ Center for Near-Earth Object Studies
JPL Home Earth Solar System Stars & Galaxies Technology
JPL Solar System Dynamics
BODIES ORBITS EPHEMERIDES TOOLS PHYSICAL DATA DISCOVERY FAQ SITE MAP
JPL Small-Body Database Browser
Search: [ help ]  
91895 (1999 VV5)
Classification: Main-belt Asteroid          SPK-ID: 2091895
Ephemeris | Orbit Diagram | Orbital Elements | Mission Design | Physical Parameters | Discovery Circumstances ]

[ show orbit diagram ]
Orbital Elements at Epoch 2459000.5 (2020-May-31.0) TDB
Reference: JPL 22 (heliocentric ecliptic J2000)
 Element Value Uncertainty (1-sigma)   Units 
e .09522542911828957 4.4217e-08  
a 3.011373808245965 2.1649e-08 au
q 2.724614445120165 1.419e-07 au
i 11.38211221253398 4.2892e-06 deg
node 72.53875426011527 2.8286e-05 deg
peri 344.6854504721277 4.1048e-05 deg
M 337.4198998142337 3.1418e-05 deg
tp 2459120.220574926156
(2020-Sep-27.72057493)
0.000167 TDB
period 1908.734089700125
5.23
2.0583e-05
5.635e-08
d
yr
n .1886066801775194 2.0339e-09 deg/d
Q 3.298133171371765 2.3711e-08 au
  Orbit Determination Parameters
   # obs. used (total)      918  
   data-arc span      7329 days (20.07 yr)  
   first obs. used      1999-10-30  
   last obs. used      2019-11-23  
   planetary ephem.      DE431  
   SB-pert. ephem.      SB431-N16  
   condition code      0  
   norm. resid. RMS      .56798  
   source      ORB  
   producer      Otto Matic  
   solution date      2019-Dec-14 08:17:51  

Additional Information
 Earth MOID = 1.73899 au 
 Jupiter MOID = 2.02339 au 
 T_jup = 3.213 
[ show covariance matrix ]

Ephemeris | Orbit Diagram | Orbital Elements | Mission Design | Physical Parameters | Discovery Circumstances ]

Physical Parameter Table
Parameter Symbol Value Units Sigma Reference Notes
absolute magnitude H 14.0   n/a MPO449565  

91895 (1999 VV5)          Discovered 1999-Nov-05 by Kobayashi, T. at Oizumi
Reference: 20041028/Numbers.arcLast Updated: 2004-10-29
Ephemeris | Orbit Diagram | Orbital Elements | Mission Design | Physical Parameters | Discovery Circumstances ]
ABOUT SSD CREDITS/AWARDS PRIVACY/COPYRIGHT GLOSSARY LINKS
FirstGov 2020-Sep-23 04:27 UT
(server date/time)  
NASA Home Page
Site Manager:   Ryan S. Park
Webmaster  Alan B. Chamberlin